| time (UTC) | temp F | wind direction | speed MPH | gust MPH | rain 1hr in | rain 24hr in | rain mn in | humidity % | barometer mb |
| 20260906214208 | 91 | 102 | 1.0 | 7.0 | 0.00 | 0.00 | 0.00 | 30 | 982.2 |
| 20260906213708 | 91 | 198 | 1.0 | 7.0 | 0.00 | 0.00 | 0.00 | 30 | 982.2 |
| 20260906213208 | 90 | 129 | 1.0 | 10.0 | 0.00 | 0.00 | 0.00 | 30 | 982.4 |
| 20260906212708 | 90 | 72 | 1.0 | 10.0 | 0.00 | 0.00 | 0.00 | 31 | 982.5 |
| 20260906212208 | 91 | 196 | 1.0 | 9.0 | 0.00 | 0.00 | 0.00 | 30 | 982.7 |
| 20260906211709 | 91 | 117 | 1.0 | 9.0 | 0.00 | 0.00 | 0.00 | 31 | 982.7 |
| 20260906211208 | 90 | 149 | 1.0 | 5.0 | 0.00 | 0.00 | 0.00 | 30 | 982.7 |
| 20260906210709 | 90 | 231 | 1.0 | 9.0 | 0.00 | 0.00 | 0.00 | 30 | 982.7 |
| 20260906210208 | 90 | 136 | 2.0 | 10.0 | 0.00 | 0.00 | 0.00 | 29 | 982.7 |
| 20260906205708 | 89 | 179 | 2.0 | 11.0 | 0.00 | 0.00 | 0.00 | 31 | 982.8 |
| 20260906205208 | 89 | 183 | 1.0 | 11.0 | 0.00 | 0.00 | 0.00 | 32 | 982.8 |
| 20260906204713 | 89 | 217 | 1.0 | 9.0 | 0.00 | 0.00 | 0.00 | 30 | 983.0 |
| 20260906204709 | 89 | 304 | 1.0 | 9.0 | 0.00 | 0.00 | 0.00 | 32 | 983.0 |
| 20260906204314 | 89 | 167 | 1.0 | 9.0 | 0.00 | 0.00 | 0.00 | 30 | 983.1 |
| 20260906203213 | 89 | 281 | 1.0 | 5.0 | 0.00 | 0.00 | 0.00 | 31 | 983.1 |
| 20260906203208 | 89 | 126 | 1.0 | 3.0 | 0.00 | 0.00 | 0.00 | 31 | 983.1 |
| 20260906202208 | 90 | 36 | 1.0 | 5.0 | 0.00 | 0.00 | 0.00 | 30 | 983.2 |
| 20260906201713 | 91 | 249 | 1.0 | 4.0 | 0.00 | 0.00 | 0.00 | 29 | 983.3 |
| 20260906201709 | 90 | 207 | 1.0 | 5.0 | 0.00 | 0.00 | 0.00 | 30 | 983.3 |
| 20260906200708 | 91 | 269 | 1.0 | 4.0 | 0.00 | 0.00 | 0.00 | 29 | 983.3 |
| 20260906200208 | 90 | 109 | 1.0 | 4.0 | 0.00 | 0.00 | 0.00 | 29 | 983.4 |
| 20260906195709 | 89 | 255 | 1.0 | 4.0 | 0.00 | 0.00 | 0.00 | 30 | 983.5 |
| 20260906195208 | 89 | 23 | 1.0 | 6.0 | 0.00 | 0.00 | 0.00 | 30 | 983.5 |
| 20260906194706 | 90 | 256 | 1.0 | 6.0 | 0.00 | 0.00 | 0.00 | 29 | 983.8 |
| 20260906194205 | 91 | 15 | 1.0 | 5.0 | 0.00 | 0.00 | 0.00 | 30 | 983.9 |
| 20260906193705 | 91 | 118 | 1.0 | 5.0 | 0.00 | 0.00 | 0.00 | 29 | 984.0 |
| 20260906193205 | 91 | 248 | 0.0 | 4.0 | 0.00 | 0.00 | 0.00 | 29 | 983.9 |
| 20260906192704 | 90 | 91 | 1.0 | 6.0 | 0.00 | 0.00 | 0.00 | 31 | 984.0 |
| 20260906192202 | 90 | 200 | 1.0 | 6.0 | 0.00 | 0.00 | 0.00 | 30 | 984.1 |
| 20260906191704 | 89 | 292 | 0.0 | 7.0 | 0.00 | 0.00 | 0.00 | 31 | 984.1 |
| 20260906191700 | 89 | 198 | 0.0 | 6.0 | 0.00 | 0.00 | 0.00 | 30 | 984.0 |
| 20260906190701 | 89 | 278 | 1.0 | 7.0 | 0.00 | 0.00 | 0.00 | 30 | 984.3 |
| 20260906190201 | 89 | 200 | 1.0 | 6.0 | 0.00 | 0.00 | 0.00 | 31 | 984.3 |
| 20260906185701 | 89 | 139 | 1.0 | 4.0 | 0.00 | 0.00 | 0.00 | 30 | 984.4 |
| 20260906185200 | 89 | 153 | 1.0 | 4.0 | 0.00 | 0.00 | 0.00 | 30 | 984.5 |
| 20260906184658 | 89 | 251 | 0.0 | 4.0 | 0.00 | 0.00 | 0.00 | 31 | 984.5 |
| 20260906184203 | 88 | 229 | 1.0 | 4.0 | 0.00 | 0.00 | 0.00 | 31 | 985.0 |
| 20260906184158 | 88 | 165 | 0.0 | 4.0 | 0.00 | 0.00 | 0.00 | 30 | 984.6 |
| 20260906183658 | 88 | 340 | 0.0 | 4.0 | 0.00 | 0.00 | 0.00 | 30 | 984.8 |
| 20260906182656 | 87 | 238 | 1.0 | 4.0 | 0.00 | 0.00 | 0.00 | 31 | 985.0 |
| 20260906182159 | 88 | 325 | 0.0 | 2.0 | 0.00 | 0.00 | 0.00 | 31 | 985.2 |
| 20260906182155 | 88 | 286 | 1.0 | 3.0 | 0.00 | 0.00 | 0.00 | 32 | 985.3 |
| 20260906181154 | 87 | 245 | 0.0 | 3.0 | 0.00 | 0.00 | 0.00 | 33 | 985.3 |
| 20260906180659 | 87 | 353 | 0.0 | 3.0 | 0.00 | 0.00 | 0.00 | 32 | 985.7 |
| 20260906180655 | 87 | 321 | 0.0 | 2.0 | 0.00 | 0.00 | 0.00 | 33 | 985.4 |
| 20260906175654 | 86 | 68 | 0.0 | 5.0 | 0.00 | 0.00 | 0.00 | 34 | 985.8 |
| 20260906175154 | 85 | 130 | 0.0 | 5.0 | 0.00 | 0.00 | 0.00 | 34 | 985.8 |
| 20260906174653 | 85 | 338 | 0.0 | 2.0 | 0.00 | 0.00 | 0.00 | 34 | 985.9 |
| 20260906174152 | 85 | 201 | 1.0 | 4.0 | 0.00 | 0.00 | 0.00 | 35 | 986.0 |
| 20260906173652 | 84 | 146 | 0.0 | 4.0 | 0.00 | 0.00 | 0.00 | 35 | 986.0 |
| 20260906173152 | 83 | 191 | 0.0 | 5.0 | 0.00 | 0.00 | 0.00 | 36 | 986.1 |
| 20260906172652 | 82 | 205 | 1.0 | 5.0 | 0.00 | 0.00 | 0.00 | 37 | 986.1 |
| 20260906172153 | 81 | 243 | 1.0 | 5.0 | 0.00 | 0.00 | 0.00 | 37 | 986.3 |
| 20260906171653 | 81 | 359 | 1.0 | 3.0 | 0.00 | 0.00 | 0.00 | 38 | 986.4 |
| 20260906171152 | 80 | 156 | 0.0 | 3.0 | 0.00 | 0.00 | 0.00 | 39 | 986.5 |
| 20260906170652 | 81 | 319 | 0.0 | 2.0 | 0.00 | 0.00 | 0.00 | 39 | 986.5 |
| 20260906170151 | 80 | 207 | 0.0 | 2.0 | 0.00 | 0.00 | 0.00 | 40 | 986.6 |
| 20260906165651 | 79 | 309 | 0.0 | 2.0 | 0.00 | 0.00 | 0.00 | 40 | 986.6 |
| 20260906165150 | 78 | 238 | 0.0 | 4.0 | 0.00 | 0.00 | 0.00 | 42 | 986.6 |
| 20260906164650 | 78 | 217 | 1.0 | 4.0 | 0.00 | 0.00 | 0.00 | 43 | 986.7 |
| 20260906164150 | 78 | 330 | 1.0 | 4.0 | 0.00 | 0.00 | 0.00 | 44 | 986.7 |
| 20260906163650 | 78 | 324 | 0.0 | 3.0 | 0.00 | 0.00 | 0.00 | 43 | 986.7 |
| 20260906163150 | 78 | 9 | 0.0 | 3.0 | 0.00 | 0.00 | 0.00 | 42 | 986.7 |
| 20260906162651 | 77 | 324 | 0.0 | 3.0 | 0.00 | 0.00 | 0.00 | 42 | 986.9 |
| 20260906162150 | 76 | 122 | 0.0 | 2.0 | 0.00 | 0.00 | 0.00 | 43 | 987.0 |
| 20260906161650 | 74 | 333 | 0.0 | 2.0 | 0.00 | 0.00 | 0.00 | 45 | 987.0 |
| 20260906161150 | 74 | 323 | 0.0 | 2.0 | 0.00 | 0.00 | 0.00 | 45 | 986.9 |
| 20260906160650 | 74 | 213 | 0.0 | 1.0 | 0.00 | 0.00 | 0.00 | 46 | 987.0 |
| 20260906160147 | 74 | 319 | 0.0 | 1.0 | 0.00 | 0.00 | 0.00 | 46 | 987.0 |
| 20260906155648 | 73 | 354 | 0.0 | 1.0 | 0.00 | 0.00 | 0.00 | 47 | 987.0 |
| 20260906155148 | 73 | 353 | 0.0 | 3.0 | 0.00 | 0.00 | 0.00 | 49 | 986.9 |
| 20260906154648 | 71 | 335 | 0.0 | 3.0 | 0.00 | 0.00 | 0.00 | 51 | 986.7 |
| 20260906154148 | 71 | 340 | 0.0 | 3.0 | 0.00 | 0.00 | 0.00 | 52 | 986.7 |
| 20260906153653 | 71 | 336 | 0.0 | 2.0 | 0.00 | 0.00 | 0.00 | 53 | 986.7 |
| 20260906153648 | 71 | 310 | 0.0 | 2.0 | 0.00 | 0.00 | 0.00 | 52 | 986.7 |
| 20260906152647 | 70 | 331 | 0.0 | 1.0 | 0.00 | 0.00 | 0.00 | 54 | 986.7 |
| 20260906152148 | 70 | 15 | 0.0 | 1.0 | 0.00 | 0.00 | 0.00 | 54 | 986.6 |
| 20260906151651 | 68 | 30 | 0.0 | 3.0 | 0.00 | 0.00 | 0.00 | 58 | 986.7 |
| 20260906151647 | 69 | 359 | 0.0 | 3.0 | 0.00 | 0.00 | 0.00 | 56 | 986.7 |
| 20260906150647 | 68 | 354 | 0.0 | 2.0 | 0.00 | 0.00 | 0.00 | 59 | 986.9 |
| 20260906150145 | 67 | 81 | 0.0 | 2.0 | 0.00 | 0.00 | 0.00 | 60 | 986.9 |
| 20260906145645 | 67 | 332 | 0.0 | 2.0 | 0.00 | 0.00 | 0.00 | 61 | 986.9 |
| 20260906145151 | 65 | 301 | 0.0 | 2.0 | 0.00 | 0.00 | 0.00 | 64 | 986.7 |
| 20260906145147 | 67 | 335 | 0.0 | 0.0 | 0.00 | 0.00 | 0.00 | 63 | 986.9 |
| 20260906144646 | 66 | 319 | 0.0 | 2.0 | 0.00 | 0.00 | 0.00 | 64 | 986.7 |
| 20260906143646 | 64 | 344 | 0.0 | 1.0 | 0.00 | 0.00 | 0.00 | 63 | 986.7 |
| 20260906143146 | 64 | 5 | 0.0 | 1.0 | 0.00 | 0.00 | 0.00 | 63 | 986.7 |
| 20260906142644 | 63 | 356 | 0.0 | 1.0 | 0.00 | 0.00 | 0.00 | 63 | 986.9 |
| 20260906142144 | 63 | 335 | 0.0 | 1.0 | 0.00 | 0.00 | 0.00 | 64 | 986.9 |
| 20260906141644 | 62 | 356 | 0.0 | 1.0 | 0.00 | 0.00 | 0.00 | 65 | 987.0 |
| 20260906141145 | 62 | 279 | 0.0 | 1.0 | 0.00 | 0.00 | 0.00 | 65 | 987.0 |
| 20260906140148 | 59 | 167 | 0.0 | 0.0 | 0.00 | 0.00 | 0.00 | 69 | 986.9 |
| 20260906140144 | 61 | 167 | 0.0 | 0.0 | 0.00 | 0.00 | 0.00 | 66 | 986.9 |
| 20260906135643 | 60 | 167 | 0.0 | 0.0 | 0.00 | 0.00 | 0.00 | 67 | 986.9 |
| 20260906134643 | 58 | 167 | 0.0 | 0.0 | 0.00 | 0.00 | 0.00 | 71 | 986.6 |
| 20260906134144 | 58 | 167 | 0.0 | 0.0 | 0.00 | 0.00 | 0.00 | 72 | 986.5 |
| 20260906133643 | 58 | 167 | 0.0 | 0.0 | 0.00 | 0.00 | 0.00 | 72 | 986.5 |
| 20260906133144 | 57 | 167 | 0.0 | 0.0 | 0.00 | 0.00 | 0.00 | 72 | 986.4 |
| 20260906132644 | 57 | 177 | 0.0 | 0.0 | 0.00 | 0.00 | 0.00 | 73 | 986.4 |
| 20260906132144 | 56 | 178 | 0.0 | 0.0 | 0.00 | 0.00 | 0.00 | 74 | 986.4 |
| 20260906131647 | 55 | 178 | 0.0 | 0.0 | 0.00 | 0.00 | 0.00 | 75 | 986.4 |
| 20260906131643 | 56 | 178 | 0.0 | 0.0 | 0.00 | 0.00 | 0.00 | 74 | 986.4 |
| 20260906130643 | 55 | 178 | 0.0 | 0.0 | 0.00 | 0.00 | 0.00 | 75 | 986.4 |
| 20260906130143 | 55 | 178 | 0.0 | 0.0 | 0.00 | 0.00 | 0.00 | 75 | 986.4 |
| 20260906125643 | 54 | 177 | 0.0 | 0.0 | 0.00 | 0.00 | 0.00 | 75 | 986.4 |
| 20260906125148 | 54 | 178 | 0.0 | 0.0 | 0.00 | 0.00 | 0.00 | 75 | 986.3 |
| 20260906125144 | 54 | 177 | 0.0 | 0.0 | 0.00 | 0.00 | 0.00 | 75 | 986.3 |
| 20260906124144 | 54 | 176 | 0.0 | 0.0 | 0.00 | 0.00 | 0.00 | 74 | 986.3 |
| 20260906123644 | 55 | 176 | 0.0 | 0.0 | 0.00 | 0.00 | 0.00 | 74 | 986.4 |
| 20260906123144 | 55 | 176 | 0.0 | 0.0 | 0.00 | 0.00 | 0.00 | 74 | 986.3 |
| 20260906122647 | 55 | 176 | 0.0 | 0.0 | 0.00 | 0.00 | 0.00 | 74 | 986.1 |
| 20260906122643 | 55 | 176 | 0.0 | 0.0 | 0.00 | 0.00 | 0.00 | 74 | 986.3 |
| 20260906122250 | 55 | 165 | 0.0 | 0.0 | 0.00 | 0.00 | 0.00 | 74 | 986.0 |
| 20260906121749 | 55 | 165 | 0.0 | 0.0 | 0.00 | 0.00 | 0.00 | 74 | 986.1 |
| 20260906121247 | 55 | 165 | 0.0 | 0.0 | 0.00 | 0.00 | 0.00 | 74 | 986.0 |
| 20260906120147 | 55 | 207 | 0.0 | 0.0 | 0.00 | 0.00 | 0.00 | 73 | 986.3 |
| 20260906120142 | 55 | 165 | 0.0 | 0.0 | 0.00 | 0.00 | 0.00 | 73 | 986.3 |
| 20260906115142 | 55 | 206 | 0.0 | 0.0 | 0.00 | 0.00 | 0.00 | 73 | 986.1 |
| 20260906114642 | 55 | 207 | 0.0 | 0.0 | 0.00 | 0.00 | 0.00 | 72 | 986.1 |
| 20260906114145 | 55 | 206 | 0.0 | 0.0 | 0.00 | 0.00 | 0.00 | 72 | 986.0 |
| 20260906114140 | 55 | 207 | 0.0 | 0.0 | 0.00 | 0.00 | 0.00 | 72 | 986.0 |
| 20260906113144 | 56 | 206 | 0.0 | 0.0 | 0.00 | 0.00 | 0.00 | 71 | 985.9 |
| 20260906113140 | 56 | 206 | 0.0 | 0.0 | 0.00 | 0.00 | 0.00 | 71 | 986.0 |
| 20260906112139 | 56 | 206 | 0.0 | 0.0 | 0.00 | 0.00 | 0.00 | 70 | 985.9 |
| 20260906111639 | 56 | 206 | 0.0 | 0.0 | 0.00 | 0.00 | 0.00 | 71 | 985.8 |
| 20260906111140 | 56 | 206 | 0.0 | 0.0 | 0.00 | 0.00 | 0.00 | 71 | 985.7 |
| 20260906110638 | 56 | 206 | 0.0 | 0.0 | 0.00 | 0.00 | 0.00 | 71 | 985.8 |
| 20260906110137 | 56 | 206 | 0.0 | 0.0 | 0.00 | 0.00 | 0.00 | 70 | 985.8 |
| 20260906105642 | 58 | 207 | 0.0 | 0.0 | 0.00 | 0.00 | 0.00 | 68 | 985.9 |
| 20260906105638 | 57 | 207 | 0.0 | 0.0 | 0.00 | 0.00 | 0.00 | 69 | 985.9 |
| 20260906104638 | 58 | 207 | 0.0 | 0.0 | 0.00 | 0.00 | 0.00 | 68 | 985.7 |
| 20260906104141 | 57 | 135 | 0.0 | 0.0 | 0.00 | 0.00 | 0.00 | 68 | 985.8 |
| 20260906104137 | 58 | 207 | 0.0 | 0.0 | 0.00 | 0.00 | 0.00 | 68 | 985.7 |
| 20260906103139 | 57 | 214 | 0.0 | 0.0 | 0.00 | 0.00 | 0.00 | 69 | 985.7 |
| 20260906102637 | 57 | 214 | 0.0 | 0.0 | 0.00 | 0.00 | 0.00 | 69 | 985.7 |
| 20260906102138 | 57 | 184 | 0.0 | 0.0 | 0.00 | 0.00 | 0.00 | 69 | 985.9 |
| 20260906101638 | 57 | 148 | 0.0 | 0.0 | 0.00 | 0.00 | 0.00 | 68 | 986.0 |
| 20260906101138 | 58 | 164 | 0.0 | 0.0 | 0.00 | 0.00 | 0.00 | 68 | 986.0 |
| 20260906100637 | 58 | 146 | 0.0 | 0.0 | 0.00 | 0.00 | 0.00 | 68 | 985.9 |
| 20260906100135 | 58 | 147 | 0.0 | 0.0 | 0.00 | 0.00 | 0.00 | 68 | 985.8 |
| 20260906095635 | 58 | 147 | 0.0 | 0.0 | 0.00 | 0.00 | 0.00 | 67 | 985.8 |
| 20260906095136 | 58 | 147 | 0.0 | 0.0 | 0.00 | 0.00 | 0.00 | 67 | 985.7 |
| 20260906094635 | 58 | 147 | 0.0 | 0.0 | 0.00 | 0.00 | 0.00 | 67 | 985.7 |
| 20260906094136 | 59 | 147 | 0.0 | 0.0 | 0.00 | 0.00 | 0.00 | 67 | 985.6 |
| 20260906093635 | 59 | 146 | 0.0 | 0.0 | 0.00 | 0.00 | 0.00 | 66 | 985.7 |
| 20260906093135 | 60 | 145 | 0.0 | 0.0 | 0.00 | 0.00 | 0.00 | 66 | 985.8 |
| 20260906092635 | 60 | 148 | 0.0 | 0.0 | 0.00 | 0.00 | 0.00 | 65 | 985.7 |
| 20260906092136 | 60 | 158 | 0.0 | 0.0 | 0.00 | 0.00 | 0.00 | 64 | 985.8 |
| 20260906091634 | 60 | 142 | 0.0 | 0.0 | 0.00 | 0.00 | 0.00 | 63 | 985.7 |
| 20260906091132 | 60 | 142 | 0.0 | 0.0 | 0.00 | 0.00 | 0.00 | 64 | 985.7 |
| 20260906090634 | 60 | 142 | 0.0 | 0.0 | 0.00 | 0.00 | 0.00 | 65 | 985.6 |
| 20260906090133 | 60 | 142 | 0.0 | 0.0 | 0.00 | 0.00 | 0.00 | 65 | 985.6 |
| 20260906085633 | 60 | 142 | 0.0 | 0.0 | 0.00 | 0.00 | 0.00 | 64 | 985.4 |
| 20260906085133 | 60 | 142 | 0.0 | 0.0 | 0.00 | 0.00 | 0.00 | 64 | 985.4 |
| 20260906084631 | 59 | 142 | 0.0 | 0.0 | 0.00 | 0.00 | 0.00 | 65 | 985.4 |
| 20260906084135 | 59 | 142 | 0.0 | 0.0 | 0.00 | 0.00 | 0.00 | 65 | 985.6 |
| 20260906084131 | 59 | 142 | 0.0 | 0.0 | 0.00 | 0.00 | 0.00 | 65 | 985.4 |
| 20260906083131 | 59 | 142 | 0.0 | 0.0 | 0.00 | 0.00 | 0.00 | 65 | 985.6 |
| 20260906082631 | 60 | 160 | 0.0 | 0.0 | 0.00 | 0.00 | 0.00 | 65 | 985.6 |
| 20260906082129 | 60 | 160 | 0.0 | 0.0 | 0.00 | 0.00 | 0.00 | 64 | 985.7 |
| 20260906081629 | 60 | 159 | 0.0 | 0.0 | 0.00 | 0.00 | 0.00 | 63 | 985.8 |
| 20260906081129 | 60 | 160 | 0.0 | 0.0 | 0.00 | 0.00 | 0.00 | 62 | 985.8 |
| 20260906080629 | 61 | 160 | 0.0 | 0.0 | 0.00 | 0.00 | 0.00 | 62 | 985.8 |
| 20260906080129 | 61 | 156 | 0.0 | 0.0 | 0.00 | 0.00 | 0.00 | 62 | 985.8 |
| 20260906075633 | 61 | 156 | 0.0 | 0.0 | 0.00 | 0.00 | 0.00 | 62 | 985.8 |
| 20260906075628 | 61 | 156 | 0.0 | 0.0 | 0.00 | 0.00 | 0.00 | 62 | 985.8 |
| 20260906074629 | 61 | 156 | 0.0 | 0.0 | 0.00 | 0.00 | 0.00 | 61 | 985.9 |
| 20260906074129 | 62 | 156 | 0.0 | 0.0 | 0.00 | 0.00 | 0.00 | 60 | 985.9 |
| 20260906073628 | 63 | 156 | 0.0 | 0.0 | 0.00 | 0.00 | 0.00 | 58 | 985.9 |
| 20260906073131 | 65 | 156 | 0.0 | 0.0 | 0.00 | 0.00 | 0.00 | 54 | 985.9 |
| 20260906073127 | 64 | 156 | 0.0 | 0.0 | 0.00 | 0.00 | 0.00 | 56 | 985.9 |
| 20260906072131 | 65 | 151 | 0.0 | 0.0 | 0.00 | 0.00 | 0.00 | 55 | 985.8 |
| 20260906072127 | 64 | 151 | 0.0 | 0.0 | 0.00 | 0.00 | 0.00 | 54 | 985.8 |
| 20260906071127 | 65 | 150 | 0.0 | 0.0 | 0.00 | 0.00 | 0.00 | 55 | 985.8 |
| 20260906070626 | 65 | 154 | 0.0 | 0.0 | 0.00 | 0.00 | 0.00 | 55 | 985.7 |
| 20260906070127 | 66 | 158 | 0.0 | 0.0 | 0.00 | 0.00 | 0.00 | 54 | 985.7 |
| 20260906065627 | 67 | 184 | 0.0 | 0.0 | 0.00 | 0.00 | 0.00 | 53 | 985.8 |
| 20260906065126 | 67 | 200 | 0.0 | 1.0 | 0.00 | 0.00 | 0.00 | 52 | 985.7 |
| 20260906064631 | 68 | 238 | 0.0 | 3.0 | 0.00 | 0.00 | 0.00 | 51 | 985.7 |
| 20260906064626 | 68 | 214 | 0.0 | 3.0 | 0.00 | 0.00 | 0.00 | 52 | 985.7 |
| 20260906064125 | 68 | 259 | 0.0 | 3.0 | 0.00 | 0.00 | 0.00 | 51 | 985.7 |
| 20260906063125 | 69 | 207 | 0.0 | 1.0 | 0.00 | 0.00 | 0.00 | 52 | 985.7 |
| 20260906062625 | 69 | 229 | 0.0 | 1.0 | 0.00 | 0.00 | 0.00 | 52 | 985.8 |
| 20260906062125 | 70 | 206 | 0.0 | 2.0 | 0.00 | 0.00 | 0.00 | 52 | 985.8 |
| 20260906061625 | 70 | 246 | 0.0 | 2.0 | 0.00 | 0.00 | 0.00 | 53 | 985.8 |
| 20260906061126 | 70 | 237 | 0.0 | 3.0 | 0.00 | 0.00 | 0.00 | 54 | 985.8 |
| 20260906060627 | 69 | 229 | 0.0 | 1.0 | 0.00 | 0.00 | 0.00 | 62 | 985.8 |
| 20260906060623 | 69 | 236 | 0.0 | 3.0 | 0.00 | 0.00 | 0.00 | 57 | 985.8 |
| 20260906055622 | 68 | 201 | 0.0 | 1.0 | 0.00 | 0.00 | 0.00 | 63 | 985.9 |
| 20260906055123 | 68 | 145 | 0.0 | 0.0 | 0.00 | 0.00 | 0.00 | 64 | 985.9 |
| 20260906054623 | 67 | 151 | 0.0 | 0.0 | 0.00 | 0.00 | 0.00 | 64 | 985.9 |
| 20260906054121 | 67 | 151 | 0.0 | 0.0 | 0.00 | 0.00 | 0.00 | 64 | 985.8 |
| 20260906053620 | 68 | 151 | 0.0 | 1.0 | 0.00 | 0.00 | 0.00 | 63 | 985.8 |
| 20260906053120 | 68 | 150 | 0.0 | 1.0 | 0.00 | 0.00 | 0.00 | 62 | 985.9 |
| 20260906052619 | 68 | 124 | 0.0 | 1.0 | 0.00 | 0.00 | 0.00 | 62 | 985.9 |
| 20260906052119 | 68 | 236 | 0.0 | 0.0 | 0.00 | 0.00 | 0.00 | 62 | 985.8 |
| 20260906051619 | 68 | 236 | 0.0 | 0.0 | 0.00 | 0.00 | 0.00 | 62 | 985.8 |
| 20260906051119 | 68 | 236 | 0.0 | 0.0 | 0.00 | 0.00 | 0.00 | 62 | 985.8 |
| 20260906050620 | 68 | 236 | 0.0 | 0.0 | 0.00 | 0.00 | 0.00 | 62 | 985.9 |
| 20260906050123 | 69 | 236 | 0.0 | 0.0 | 0.00 | 0.00 | 0.00 | 60 | 985.9 |
| 20260906050119 | 69 | 236 | 0.0 | 0.0 | 0.00 | 0.00 | 0.00 | 61 | 985.9 |
| 20260906045120 | 69 | 236 | 0.0 | 0.0 | 0.00 | 0.00 | 0.00 | 59 | 986.0 |
| 20260906044619 | 70 | 236 | 0.0 | 0.0 | 0.00 | 0.00 | 0.00 | 58 | 986.0 |
| 20260906044120 | 70 | 236 | 0.0 | 1.0 | 0.00 | 0.00 | 0.00 | 58 | 986.0 |
| 20260906043624 | 70 | 203 | 0.0 | 0.0 | 0.00 | 0.00 | 0.00 | 58 | 985.9 |
| 20260906043620 | 70 | 236 | 0.0 | 1.0 | 0.00 | 0.00 | 0.00 | 58 | 986.0 |
| 20260906042620 | 71 | 203 | 0.0 | 0.0 | 0.00 | 0.00 | 0.00 | 57 | 986.0 |
| 20260906042119 | 71 | 98 | 0.0 | 0.0 | 0.00 | 0.00 | 0.00 | 57 | 986.0 |
| 20260906041619 | 71 | 98 | 0.0 | 0.0 | 0.00 | 0.00 | 0.00 | 56 | 986.0 |
| 20260906041120 | 72 | 14 | 0.0 | 1.0 | 0.00 | 0.00 | 0.00 | 55 | 985.9 |
| 20260906040619 | 72 | 14 | 0.0 | 1.0 | 0.00 | 0.00 | 0.00 | 55 | 985.9 |
| 20260906040120 | 72 | 355 | 0.0 | 0.0 | 0.00 | 0.00 | 0.00 | 55 | 985.9 |
| 20260906035619 | 72 | 307 | 0.0 | 0.0 | 0.00 | 0.00 | 0.00 | 55 | 985.9 |
| 20260906035123 | 72 | 307 | 0.0 | 0.0 | 0.00 | 0.00 | 0.00 | 54 | 985.9 |
| 20260906035119 | 72 | 307 | 0.0 | 0.0 | 0.00 | 0.00 | 0.00 | 53 | 985.9 |
| 20260906034118 | 72 | 307 | 0.0 | 0.0 | 0.00 | 0.00 | 0.00 | 53 | 985.9 |
| 20260906033618 | 72 | 133 | 0.0 | 0.0 | 0.00 | 0.00 | 0.00 | 53 | 985.9 |
| 20260906033117 | 72 | 9 | 0.0 | 1.0 | 0.00 | 0.00 | 0.00 | 52 | 985.9 |
| 20260906032617 | 72 | 211 | 1.0 | 5.0 | 0.00 | 0.00 | 0.00 | 50 | 985.8 |
| 20260906032117 | 72 | 168 | 2.0 | 6.0 | 0.00 | 0.00 | 0.00 | 49 | 985.8 |
| 20260906031617 | 72 | 186 | 2.0 | 7.0 | 0.00 | 0.00 | 0.00 | 48 | 985.6 |
| 20260906031117 | 72 | 196 | 3.0 | 11.0 | 0.00 | 0.00 | 0.00 | 46 | 985.4 |
| 20260906030618 | 71 | 166 | 3.0 | 11.0 | 0.00 | 0.00 | 0.00 | 51 | 985.4 |
| 20260906030122 | 69 | 180 | 0.0 | 6.0 | 0.00 | 0.00 | 0.00 | 44 | 985.2 |
| 20260906030118 | 69 | 159 | 1.0 | 9.0 | 0.00 | 0.00 | 0.00 | 47 | 985.2 |
| 20260906025723 | 69 | 172 | 0.0 | 0.0 | 0.00 | 0.00 | 0.00 | 43 | 984.6 |
| 20260906025116 | 69 | 129 | 0.0 | 0.0 | 0.00 | 0.00 | 0.00 | 43 | 984.6 |
| 20260906024121 | 69 | 169 | 0.0 | 0.0 | 0.00 | 0.00 | 0.00 | 42 | 984.6 |
| 20260906024117 | 70 | 139 | 0.0 | 0.0 | 0.00 | 0.00 | 0.00 | 41 | 984.5 |
| 20260906023114 | 71 | 133 | 0.0 | 1.0 | 0.00 | 0.00 | 0.00 | 41 | 984.5 |
| 20260906022613 | 71 | 133 | 0.0 | 1.0 | 0.00 | 0.00 | 0.00 | 39 | 984.5 |
| 20260906022113 | 72 | 133 | 0.0 | 0.0 | 0.00 | 0.00 | 0.00 | 39 | 984.6 |
| 20260906021614 | 72 | 133 | 0.0 | 0.0 | 0.00 | 0.00 | 0.00 | 38 | 984.6 |
| 20260906021113 | 73 | 133 | 0.0 | 0.0 | 0.00 | 0.00 | 0.00 | 37 | 984.5 |
| 20260906020613 | 74 | 133 | 0.0 | 0.0 | 0.00 | 0.00 | 0.00 | 36 | 984.4 |
| 20260906020115 | 74 | 133 | 0.0 | 0.0 | 0.00 | 0.00 | 0.00 | 35 | 984.3 |
| 20260906020111 | 75 | 133 | 0.0 | 0.0 | 0.00 | 0.00 | 0.00 | 34 | 984.3 |
| 20260906015718 | 76 | 133 | 0.0 | 0.0 | 0.00 | 0.00 | 0.00 | 33 | 984.3 |
| 20260906014611 | 77 | 148 | 0.0 | 0.0 | 0.00 | 0.00 | 0.00 | 33 | 984.1 |
| 20260906014110 | 77 | 218 | 0.0 | 1.0 | 0.00 | 0.00 | 0.00 | 32 | 984.1 |
| 20260906013611 | 78 | 218 | 0.0 | 1.0 | 0.00 | 0.00 | 0.00 | 31 | 984.1 |
| 20260906013109 | 78 | 199 | 0.0 | 0.0 | 0.00 | 0.00 | 0.00 | 31 | 984.0 |
| 20260906012609 | 79 | 193 | 0.0 | 0.0 | 0.00 | 0.00 | 0.00 | 30 | 984.1 |
| 20260906012110 | 79 | 193 | 0.0 | 2.0 | 0.00 | 0.00 | 0.00 | 30 | 984.0 |
| 20260906011610 | 80 | 202 | 0.0 | 2.0 | 0.00 | 0.00 | 0.00 | 29 | 984.1 |
| 20260906011109 | 81 | 179 | 0.0 | 2.0 | 0.00 | 0.00 | 0.00 | 28 | 984.1 |
| 20260906010609 | 81 | 163 | 1.0 | 4.0 | 0.00 | 0.00 | 0.00 | 28 | 984.1 |
| 20260906010110 | 82 | 155 | 1.0 | 4.0 | 0.00 | 0.00 | 0.00 | 27 | 984.1 |
| 20260906005608 | 82 | 216 | 1.0 | 4.0 | 0.00 | 0.00 | 0.00 | 27 | 984.4 |
| 20260906005111 | 83 | 188 | 1.0 | 4.0 | 0.00 | 0.00 | 0.00 | 26 | 984.4 |
| 20260906005107 | 83 | 192 | 0.0 | 4.0 | 0.00 | 0.00 | 0.00 | 27 | 984.3 |
| 20260906004106 | 84 | 194 | 1.0 | 5.0 | 0.00 | 0.00 | 0.00 | 26 | 984.4 |
| 20260906003612 | 84 | 200 | 1.0 | 4.0 | 0.00 | 0.00 | 0.00 | 26 | 984.4 |
| 20260906003607 | 85 | 205 | 0.0 | 5.0 | 0.00 | 0.00 | 0.00 | 26 | 984.4 |
| 20260906003212 | 85 | 197 | 1.0 | 5.0 | 0.00 | 0.00 | 0.00 | 27 | 984.3 |
| 20260906002607 | 85 | 217 | 1.0 | 5.0 | 0.00 | 0.00 | 0.00 | 26 | 984.3 |
| 20260906001608 | 84 | 157 | 2.0 | 7.0 | 0.00 | 0.00 | 0.00 | 27 | 984.3 |
| 20260906001108 | 84 | 149 | 3.0 | 7.0 | 0.00 | 0.00 | 0.00 | 26 | 984.3 |
| 20260906000606 | 85 | 163 | 3.0 | 7.0 | 0.00 | 0.00 | 0.00 | 27 | 984.4 |
| 20260906000107 | 85 | 189 | 3.0 | 6.0 | 0.00 | 0.00 | 0.00 | 26 | 984.3 |
| 20260905235607 | 86 | 162 | 3.0 | 7.0 | 0.00 | 0.00 | 0.00 | 26 | 984.3 |
| 20260905235107 | 86 | 150 | 2.0 | 7.0 | 0.00 | 0.00 | 0.00 | 26 | 984.0 |
| 20260905234607 | 85 | 191 | 1.0 | 6.0 | 0.00 | 0.00 | 0.00 | 27 | 984.0 |
| 20260905234107 | 83 | 207 | 0.0 | 2.0 | 0.00 | 0.00 | 0.00 | 29 | 984.1 |
| 20260905233607 | 82 | 187 | 0.0 | 3.0 | 0.00 | 0.00 | 0.00 | 29 | 984.1 |
| 20260905233107 | 82 | 179 | 1.0 | 4.0 | 0.00 | 0.00 | 0.00 | 28 | 984.1 |
| 20260905232608 | 82 | 159 | 2.0 | 6.0 | 0.00 | 0.00 | 0.00 | 28 | 984.0 |
| 20260905232109 | 83 | 158 | 3.0 | 8.0 | 0.00 | 0.00 | 0.00 | 28 | 984.1 |
| 20260905231608 | 83 | 184 | 4.0 | 8.0 | 0.00 | 0.00 | 0.00 | 28 | 984.0 |
| 20260905231107 | 83 | 207 | 3.0 | 8.0 | 0.00 | 0.00 | 0.00 | 28 | 984.0 |
| 20260905230606 | 84 | 173 | 1.0 | 8.0 | 0.00 | 0.00 | 0.00 | 27 | 984.0 |
| 20260905230106 | 85 | 78 | 1.0 | 8.0 | 0.00 | 0.00 | 0.00 | 26 | 984.0 |
| 20260905225605 | 85 | 75 | 1.0 | 8.0 | 0.00 | 0.00 | 0.00 | 25 | 983.9 |
| 20260905225105 | 86 | 260 | 0.0 | 2.0 | 0.00 | 0.00 | 0.00 | 25 | 983.9 |
| 20260905224605 | 87 | 150 | 0.0 | 2.0 | 0.00 | 0.00 | 0.00 | 25 | 983.9 |
| 20260905224104 | 87 | 280 | 0.0 | 2.0 | 0.00 | 0.00 | 0.00 | 25 | 984.0 |
| 20260905223605 | 87 | 120 | 0.0 | 4.0 | 0.00 | 0.00 | 0.00 | 25 | 984.1 |
| 20260905223102 | 87 | 120 | 0.0 | 4.0 | 0.00 | 0.00 | 0.00 | 25 | 984.1 |
| 20260905222602 | 87 | 220 | 0.0 | 3.0 | 0.00 | 0.00 | 0.00 | 24 | 984.1 |
| 20260905222103 | 87 | 143 | 0.0 | 1.0 | 0.00 | 0.00 | 0.00 | 25 | 984.0 |
| 20260905221605 | 88 | 252 | 0.0 | 1.0 | 0.00 | 0.00 | 0.00 | 24 | 984.1 |
| 20260905221601 | 87 | 182 | 0.0 | 1.0 | 0.00 | 0.00 | 0.00 | 23 | 984.1 |
| 20260905220600 | 88 | 0 | 0.0 | 3.0 | 0.00 | 0.00 | 0.00 | 23 | 984.1 |
| 20260905220058 | 87 | 348 | 0.0 | 3.0 | 0.00 | 0.00 | 0.00 | 24 | 984.1 |
| 20260905215603 | 88 | 291 | 0.0 | 2.0 | 0.00 | 0.00 | 0.00 | 23 | 984.3 |
| 20260905215559 | 87 | 319 | 0.0 | 2.0 | 0.00 | 0.00 | 0.00 | 23 | 984.1 |
| 20260905214559 | 89 | 155 | 0.0 | 2.0 | 0.00 | 0.00 | 0.00 | 23 | 984.3 |